FW3145 Weather Reports


Display with metric or nautical units.
time (UTC)temp
F
wind
direction
speed
MPH
gust
MPH
rain 1hr
in
rain 24hr
in
rain mn
in
humidity
%
barometer
mb
20260831191535 79 32 0.0 0.0 0.00 0.00 0.00 71 1012.5
20260831190040 79 49 0.0 0.0 0.00 0.00 0.00 72 1012.5
20260831184535 80 97 0.0 0.0 0.00 0.00 0.00 71 1012.3
20260831183033 80 16 0.0 0.0 0.00 0.00 0.00 70 1012.1
20260831181533 81 30 0.0 0.0 0.00 0.00 0.00 69 1012.0
20260831180032 82 28 0.0 0.0 0.00 0.00 0.00 69 1011.9
20260831174532 82 57 0.0 0.0 0.00 0.00 0.00 67 1011.9
20260831173031 83 319 0.0 0.0 0.00 0.00 0.00 67 1011.8
20260831171530 85 271 0.0 0.0 0.00 0.00 0.00 65 1011.8
20260831170030 86 256 0.0 0.0 0.00 0.00 0.00 64 1011.8
20260831164529 86 253 0.0 0.0 0.00 0.00 0.00 61 1011.8
20260831163028 87 270 0.0 0.0 0.00 0.00 0.00 63 1011.8
20260831161528 88 267 0.0 0.0 0.00 0.00 0.00 62 1011.6
20260831160030 88 280 0.0 0.0 0.00 0.00 0.00 63 1011.6
20260831154527 89 269 0.0 0.0 0.00 0.00 0.00 61 1011.5
20260831153025 89 269 0.0 0.0 0.00 0.00 0.00 61 1011.5
20260831151528 89 265 0.0 0.0 0.00 0.00 0.00 60 1011.8
20260831150024 90 217 0.0 0.0 0.00 0.00 0.00 61 1011.8
20260831144523 90 252 0.0 0.0 0.00 0.00 0.00 62 1011.8
20260831143024 90 271 0.0 0.0 0.00 0.00 0.00 61 1011.7
20260831141522 90 263 0.0 0.0 0.00 0.00 0.00 62 1011.7
20260831140026 91 263 0.0 0.0 0.00 0.00 0.00 60 1011.5
20260831134522 92 244 0.0 0.0 0.00 0.00 0.00 61 1011.4
20260831133031 92 275 0.0 0.0 0.00 0.00 0.00 60 1011.3
20260831131518 92 239 0.0 0.0 0.00 0.00 0.00 62 1011.2
20260831130017 91 265 0.0 0.0 0.00 0.00 0.00 60 1011.2
20260831124518 92 171 0.0 0.0 0.00 0.00 0.00 60 1011.3
20260831123013 91 167 0.0 0.0 0.00 0.00 0.00 60 1011.6
20260831121512 92 225 0.0 0.0 0.00 0.00 0.00 59 1011.6
20260831120011 92 194 0.0 0.0 0.00 0.00 0.00 62 1011.8
20260831114508 91 192 0.0 0.0 0.00 0.00 0.00 64 1011.8
20260831113005 91 210 0.0 0.0 0.00 0.00 0.00 60 1011.9
20260831111503 90 228 0.0 0.0 0.00 0.00 0.00 62 1012.0
20260831110002 90 220 0.0 0.0 0.00 0.00 0.00 62 1012.1
20260831104559 89 207 0.0 0.0 0.00 0.00 0.00 66 1012.1
20260831103103 89 93 0.0 0.0 0.00 0.00 0.00 68 1012.3
20260831101557 88 179 0.0 0.0 0.00 0.00 0.00 68 1012.4
20260831100052 88 77 0.0 0.0 0.00 0.00 0.00 68 1012.6
20260831094549 87 184 0.0 0.0 0.00 0.00 0.00 71 1012.6
20260831093047 86 85 0.0 0.0 0.00 0.00 0.00 71 1012.5
20260831091556 85 54 0.0 0.0 0.00 0.00 0.00 74 1012.6
20260831090041 84 105 0.0 0.0 0.00 0.00 0.00 75 1012.7
20260831084540 84 157 0.0 0.0 0.00 0.00 0.00 75 1012.5
20260831083036 84 174 0.0 0.0 0.00 0.00 0.00 77 1012.2
20260831081538 83 165 0.0 0.0 0.00 0.00 0.00 78 1012.1
20260831080054 82 139 0.0 0.0 0.00 0.00 0.00 78 1012.1
20260831074527 81 173 0.0 0.0 0.00 0.00 0.00 78 1012.1
20260831073053 80 159 0.0 0.0 0.00 0.00 0.00 77 1012.0
20260831071519 79 158 0.0 0.0 0.00 0.00 0.00 77 1012.0
20260831070016 79 141 0.0 0.0 0.00 0.00 0.00 76 1012.0
20260831064514 78 136 0.0 0.0 0.00 0.00 0.00 75 1012.1
20260831063015 77 61 0.0 0.0 0.00 0.00 0.00 73 1012.2
20260831061508 76 60 0.0 0.0 0.00 0.00 0.00 73 1012.2
20260831060005 76 315 0.0 0.0 0.00 0.00 0.00 73 1012.2
20260831054501 75 315 0.0 0.0 0.00 0.00 0.00 75 1012.2
20260831053058 76 315 0.0 0.0 0.00 0.00 0.00 74 1012.1
20260831051557 76 315 0.0 0.0 0.00 0.00 0.00 74 1012.0
20260831050057 76 314 0.0 0.0 0.00 0.00 0.00 75 1011.9
20260831044601 75 315 0.0 0.0 0.00 0.00 0.00 75 1011.8
20260831043053 75 315 0.0 0.0 0.00 0.00 0.00 75 1011.7
20260831041606 74 314 0.0 0.0 0.00 0.00 0.00 77 1011.7
20260831040051 74 326 0.0 0.0 0.00 0.00 0.00 78 1011.7
20260831034553 75 326 0.0 0.0 0.00 0.00 0.00 79 1011.6
20260831033048 75 326 0.0 0.0 0.00 0.00 0.00 79 1011.7
20260831031546 76 360 0.0 0.0 0.00 0.00 0.00 79 1011.7
20260831030044 76 355 0.0 0.0 0.00 0.00 0.00 79 1011.7
20260831024544 76 355 0.0 0.0 0.00 0.00 0.00 79 1012.0
20260831023042 76 355 0.0 0.0 0.00 0.00 0.00 79 1012.0
20260831021547 76 355 0.0 0.0 0.00 0.00 0.00 80 1012.0
20260831020041 77 39 0.0 0.0 0.00 0.00 0.00 80 1012.0
20260831014540 76 39 0.0 0.0 0.00 0.00 0.00 80 1012.0
20260831013045 77 42 0.0 0.0 0.00 0.00 0.00 79 1012.1
20260831011545 76 35 0.0 0.0 0.00 0.00 0.00 79 1012.2
20260831010051 77 25 0.0 0.0 0.00 0.00 0.00 79 1012.2
20260831004536 77 28 0.0 0.0 0.00 0.00 0.00 79 1012.2
20260831003035 77 28 0.0 0.0 0.00 0.00 0.00 79 1012.2
20260831001539 77 28 0.0 0.0 0.00 0.00 0.00 79 1012.2
20260831000032 78 28 0.0 0.0 0.00 0.00 0.00 79 1012.1
20260830234531 78 32 0.0 0.0 0.00 0.00 0.00 78 1012.0
20260830233030 78 30 0.0 0.0 0.00 0.00 0.00 79 1011.9
20260830231531 78 47 0.0 0.0 0.00 0.00 0.00 78 1012.0
20260830230029 78 360 0.0 0.0 0.00 0.00 0.00 78 1012.0
20260830224528 78 355 0.0 0.0 0.00 0.00 0.00 78 1012.0
20260830223026 78 355 0.0 0.0 0.00 0.00 0.00 78 1012.0
20260830221523 79 44 0.0 0.0 0.00 0.00 0.00 78 1011.9
20260830220031 79 19 0.0 0.0 0.00 0.00 0.00 77 1011.8
20260830214521 79 40 0.0 0.0 0.00 0.00 0.00 77 1011.8
20260830213021 78 78 0.0 0.0 0.00 0.00 0.00 77 1011.7
20260830211521 78 35 0.0 0.0 0.00 0.00 0.00 78 1011.6
20260830210020 77 46 0.0 0.0 0.00 0.00 0.00 79 1011.5
20260830204531 77 27 0.0 0.0 0.00 0.00 0.00 79 1011.5
20260830203019 77 35 0.0 0.0 0.00 0.00 0.00 79 1011.4
20260830201519 77 296 0.0 0.0 0.00 0.00 0.00 79 1011.4
20260830200018 77 296 0.0 0.0 0.00 0.00 0.00 79 1011.2
20260830194518 78 296 0.0 0.0 0.00 0.00 0.00 79 1011.1
20260830193017 78 296 0.0 0.0 0.00 0.00 0.00 79 1010.9